Other Public Products
Issued by NWS Grand Forks, ND

Home | Current Version | Previous Version | Graphics & Text | Print | Product List | Glossary On
Versions: 1 2 3 4 5 6 7 8 9 10 11 12 13 14 15 16 17 18 19 20 21 22 23 24 25 26 27 28 29 30 31 32 33 34 35 36 37 38 39 40 41 42 43 44 45 46 47 48 49 50
000
FPUS83 KFGF 270610
OPUFGF
PRAIRIE TO PINES WEATHER ROUNDUP
NATIONAL WEATHER SERVICE EASTERN NORTH DAKOTA/GRAND FORKS ND
100 AM CDT FRI MAY 27 2016

 **SATELLITE DATA USED TO AUGMENT SKY COVER AT AUTOMATED STATIONS**
 *****  WEATHER ACROSS EASTERN NORTH DAKOTA  *****

CITY           SKY/WX    TMP DP  RH WIND       PRES   REMARKS
GRAND FORKS    CLOUDY    56  53  90 W3        29.78S
6HR MIN TEMP:  56; 6HR MAX TEMP:  70;

GRAND FORKS AF CLOUDY    52  52 100 NW5       29.78S
GRAND CITY NWS   N/A     57 N/A N/A W1          N/A
BUXTON           N/A     58  58  97 S3          N/A
DEVILS LAKE    MOCLDY    52  52 100 CALM      29.82S
6HR MIN TEMP:  50; 6HR MAX TEMP:  65; 6HR PCP:  0.02;

FARGO          CLOUDY    60  56  86 N8        29.80R
6HR MIN TEMP:  59; 6HR MAX TEMP:  76; 6HR PCP:  0.04;

WAHPETON ARPT  PTCLDY    64  46  52 SW16G24   29.78S
$$

 *****  WEATHER ACROSS CENTRAL AND WESTERN NORTH DAKOTA  *****

CITY           SKY/WX    TMP DP  RH WIND       PRES   REMARKS
JAMESTOWN      CLOUDY    54  53  97 N7        29.78F
6HR MIN TEMP:  54; 6HR MAX TEMP:  72;

BISMARCK       PTCLDY    50  48  93 CALM      29.82S
6HR MIN TEMP:  50; 6HR MAX TEMP:  71;

MINOT          LGT RAIN  57  53  86 N10       29.83S
6HR MIN TEMP:  56; 6HR MAX TEMP:  60; 6HR PCP:  0.04;

MINOT AFB      LGT RAIN  55  54  94 N8        29.83S
6HR MIN TEMP:  55; 6HR MAX TEMP:  62; 6HR PCP:  0.05;

GARRISON         N/A     51  48  89 W3        29.82F
6HR MIN TEMP:  50; 6HR MAX TEMP:  66;

WILLISTON      CLOUDY    53  49  86 N6        29.88R
6HR MIN TEMP:  50; 6HR MAX TEMP:  66;

DICKINSON      CLOUDY    46  42  86 NW6       29.83F
6HR MIN TEMP:  46; 6HR MAX TEMP:  60;

HETTINGER      CLEAR     41  37  86 CALM      29.86F
6HR MIN TEMP:  39; 6HR MAX TEMP:  66;

$$

 *****  OTHER OBSERVATIONS NORTHEAST NORTH DAKOTA  *****

CITY           SKY/WX    TMP DP  RH WIND       PRES   REMARKS
WALHALLA       FAIR      55  55 100 CALM      29.77F
LANGDON        FAIR      50  50 100 W6        29.79F
CAVALIER       FAIR      55  54  94 SW6       29.78S
GRAFTON        FAIR      55  55 100 W6        29.80S
CANDO          NOT AVBL
FORT TOTTEN      N/A     51  51 100 CALM      29.95
ROLLA          CLOUDY    54  54 100 NW7       29.81F
RUGBY          MOCLDY    54  54 100 W7        29.81S
 ***** THE ABOVE OBSERVATIONS ARE NON NWS ARE NOT QUALITY
        CONTROLLED AND MAY MIS-REPORT RAIN FOR SNOW...
$$

 *****  OTHER OBSERVATIONS SOUTHEAST NORTH DAKOTA *****

CITY           SKY/WX    TMP DP  RH WIND       PRES   REMARKS
COOPERSTOWN    NOT AVBL
VALLEY CITY    MOCLDY    57  57 100 CALM      29.81F
OAKES            N/A    N/A N/A N/A MISG        N/A
GWINNER        FAIR      61  54  77 SW9       29.81S
SHEYENNE NWR     N/A     62  51  67 SW8       29.95
BUFFALO          N/A     55  53  92 W7          N/A
WYNDMERE       NOT AVBL
 ***** THE ABOVE OBSERVATIONS ARE NON NWS ARE NOT QUALITY
       CONTROLLED AND MAY MIS-REPORT RAIN FOR SNOW...
$$

  *****  WEATHER ACROSS NORTHERN MINNESOTA  *****

CITY           SKY/WX    TMP DP  RH WIND       PRES   REMARKS
FLAG ISLAND    CLEAR     57  54  88 W6        29.75R
WARROAD        CLEAR     55  52  88 SW7       29.77S
ROSEAU         CLEAR     57  52  82 W3        29.77S
HALLOCK        CLEAR     54  52  94 W3        29.77F
THF RVR FALLS  CLOUDY    55  52  88 SW5       29.81S
6HR MIN TEMP:  55; 6HR MAX TEMP:  70;

HALSTAD        NOT AVBL
FOSSTON        PTCLDY    55  54  94 CALM      29.81S
BAUDETTE       CLEAR     53  51  93 SW6       29.78R
6HR MIN TEMP:  53; 6HR MAX TEMP:  71;

WASKISH        CLEAR     55  52  88 SW5       29.80R
CROOKSTON      CLOUDY    57  55  94 SE9       29.80S
$$
  *****  WEATHER ACROSS CENTRAL AND WEST MINNESOTA  *****

CITY           SKY/WX    TMP DP  RH WIND       PRES   REMARKS
BEMIDJI        CLEAR     54  50  88 S3        29.81R
PARK RAPIDS    CLOUDY    58  52  80 SE6       29.82R
6HR MIN TEMP:  57; 6HR MAX TEMP:  72;

WADENA         PTCLDY    57  52  82 SE3       29.82F
DETROIT LAKES  PTCLDY    61  54  77 SE6       29.82S
MOORHEAD       CLOUDY    61  55  82 N9        29.82R
FERGUS FALLS   MOCLDY    63  52  67 SW8       29.78R
ELBOW LAKE     FAIR      62  50  66 SW9       29.83R
6HR MIN TEMP:  61; 6HR MAX TEMP:  75;

MORRIS MN      CLOUDY    61  48  63 CALM      29.81F
STAPLES        MOCLDY    57  50  77 CALM      29.83S
WHEATON        CLOUDY    63  57  82 SW5       29.83F
$$
  *****  WEATHER ELSEWHERE ACROSS MINNESOTA  *****

CITY           SKY/WX    TMP DP  RH WIND       PRES   REMARKS
DULUTH         PTCLDY    50  47  89 W6        29.85R
6HR MIN TEMP:  50; 6HR MAX TEMP:  59;

INTRNTL FALLS  CLEAR     53  51  93 SW3       29.79R
6HR MIN TEMP:  52; 6HR MAX TEMP:  72;

ELY            CLOUDY    57  54  88 SW3       29.83R
CLOQUET        CLOUDY    46  45  93 CALM      29.85S
BRAINERD       CLOUDY    57  51  80 CALM      29.84R
6HR MIN TEMP:  54; 6HR MAX TEMP:  73;

HIBBING        CLOUDY    49  48  97 SE3       29.83R
6HR MIN TEMP:  47; 6HR MAX TEMP:  72;

ALEXANDRIA     CLOUDY    64  49  57 SE7       29.84S
6HR MIN TEMP:  62; 6HR MAX TEMP:  76;

SAINT CLOUD    CLOUDY    61  55  81 CALM      29.83R
6HR MIN TEMP:  60; 6HR MAX TEMP:  78;

MINNEAPOLIS    CLOUDY    69  54  58 SE3       29.84R
6HR MIN TEMP:  69; 6HR MAX TEMP:  79;

$$

  *****  WEATHER ACROSS SOUTH DAKOTA  *****

CITY           SKY/WX    TMP DP  RH WIND       PRES   REMARKS
SIOUX FALLS    LGT RAIN  58  53  84 CALM      29.81S
6HR MIN TEMP:  58; 6HR MAX TEMP:  73; 6HR PCP: TRACE;

BROOKINGS      CLOUDY    63  54  72 E3        29.81F
WATERTOWN      CLOUDY    62  52  69 N3        29.84S
6HR MIN TEMP:  61; 6HR MAX TEMP:  75;

HURON          CLOUDY    61  56  83 E8        29.80S
6HR MIN TEMP:  60; 6HR MAX TEMP:  74;

SISSETON         N/A     60  55  83 NW5       29.80F
ABERDEEN       PTCLDY    60  55  83 S9        29.80F
6HR MIN TEMP:  60; 6HR MAX TEMP:  77; 6HR PCP:  0.12;

MITCHELL       CLOUDY    62  58  86 E6        29.79F
PIERRE         PTCLDY    55  51  86 N3        29.79F
6HR MIN TEMP:  55; 6HR MAX TEMP:  74;

MOBRIDGE       CLEAR     54  47  77 NW6       29.79S
RAPID CITY     CLEAR     50  43  77 N10       29.87S
6HR MIN TEMP:  50; 6HR MAX TEMP:  69;

$$

  *****  SOME WEATHER IN NEARBY STATES *****

CITY           SKY/WX    TMP DP  RH WIND       PRES   REMARKS
GLASGOW MT     CLOUDY    53  49  86 NE7       29.87S
6HR MIN TEMP:  53; 6HR MAX TEMP:  62;

GREAT FALLS MT PTCLDY    48  44  86 S10       29.91F
6HR MIN TEMP:  48; 6HR MAX TEMP:  59; 6HR PCP: TRACE;

CHEYENNE WY    CLOUDY    48  37  65 N13       29.90F
6HR MIN TEMP:  47; 6HR MAX TEMP:  49;

SCOTTSBLUFF NE CLOUDY    50  42  74 W6        29.83F
6HR MIN TEMP:  50; 6HR MAX TEMP:  63;

OMAHA NE       CLOUDY    65  58  78 S20G28    29.78S
6HR MIN TEMP:  63; 6HR MAX TEMP:  67; 6HR PCP:  0.10;

DES MOINES IA  CLOUDY    65  58  78 SW10      29.81F
6HR MIN TEMP:  63; 6HR MAX TEMP:  69; 6HR PCP:  0.64;

DAVENPORT IA   CLOUDY    70  64  81 W6        29.86F
6HR MIN TEMP:  70; 6HR MAX TEMP:  82;

CHICAGO IL     CLOUDY    74  67  78 SW9       29.88R
6HR MIN TEMP:  72; 6HR MAX TEMP:  81;

EAU CLAIRE WI  CLOUDY    62  57  83 CALM      29.85R
6HR MIN TEMP:  59; 6HR MAX TEMP:  77;

LA CROSSE WI   CLOUDY    65  60  84 SE5       29.85S
6HR MIN TEMP:  65; 6HR MAX TEMP:  79;

$$

  *****  SOME NATIONAL WEATHER *****

CITY           SKY/WX    TMP DP  RH WIND       PRES   REMARKS
LA GUARDIA NY  MOCLDY    71  64  78 CALM      30.05R               C1F1C2F2C3F3C4F4C5F5C6F6C7F7C8F8C9F9CaFaCbFbCcFcCdFdCe!


USA.gov is the U.S. government's official web portal to all federal, state and local government web resources and services.